Hourly Weather Barrie

Today, 21 April, Wednesday

Time Temperature Precipitation Wind Pressure Humidity
00:00 -1°C° 0 mm 2 mps 740 mmHg 64%
01:00 -1°C° 0 mm 2 mps 740 mmHg 65%
02:00 -2°C° 0 mm 2 mps 739 mmHg 67%
03:00 -2°C° 0 mm 3 mps 739 mmHg 70%
04:00 -3°C° 0 mm 4 mps 739 mmHg 73%
05:00 -4°C° 0 mm 4 mps 739 mmHg 68%
06:00 -5°C° 0 mm 5 mps 739 mmHg 62%
07:00 -5°C° 0 mm 5 mps 739 mmHg 57%
08:00 -4°C° 0 mm 5 mps 739 mmHg 52%
09:00 -4°C° 0 mm 6 mps 739 mmHg 47%
10:00 -3°C° 0 mm 6 mps 739 mmHg 43%
11:00 -3°C° 0 mm 6 mps 739 mmHg 41%
12:00 -2°C° 0 mm 7 mps 739 mmHg 40%
13:00 -2°C° 0 mm 7 mps 738 mmHg 39%
14:00 -2°C° 0 mm 8 mps 738 mmHg 43%
15:00 -2°C° 0 mm 8 mps 738 mmHg 46%
16:00 -2°C° 0 mm 8 mps 738 mmHg 49%
17:00 -4°C° 0 mm 8 mps 738 mmHg 54%
18:00 -3°C° 0 mm 7 mps 738 mmHg 60%
19:00 -4°C° 0 mm 7 mps 738 mmHg 66%
20:00 -4°C° 0 mm 7 mps 738 mmHg 67%
21:00 -4°C° 0 mm 6 mps 738 mmHg 69%
22:00 -4°C° 0 mm 6 mps 738 mmHg 71%
23:00 -4°C° 0.1 mm 6 mps 738 mmHg 67%

Tomorrow, 22 April, Thursday

Time Temperature Precipitation Wind Pressure Humidity
00:00 -4°C° 0.1 mm 5 mps 738 mmHg 63%
01:00 -4°C° 0.1 mm 5 mps 738 mmHg 60%
02:00 -4°C° 0 mm 5 mps 738 mmHg 63%
03:00 -4°C° 0 mm 5 mps 738 mmHg 66%
04:00 -4°C° 0 mm 6 mps 738 mmHg 70%
05:00 -4°C° 0.1 mm 6 mps 738 mmHg 69%
06:00 -4°C° 0.1 mm 6 mps 738 mmHg 69%
07:00 -4°C° 0.1 mm 6 mps 738 mmHg 69%
08:00 -3°C° 0.1 mm 7 mps 738 mmHg 64%
09:00 -2°C° 0.1 mm 8 mps 738 mmHg 59%
10:00 -1°C° 0.1 mm 9 mps 738 mmHg 55%
11:00 -1°C° 0 mm 9 mps 738 mmHg 52%
12:00 0°C° 0 mm 9 mps 738 mmHg 50%
13:00 +1°C° 0 mm 9 mps 738 mmHg 47%
14:00 +1°C° 0 mm 9 mps 738 mmHg 47%
15:00 +2°C° 0 mm 9 mps 738 mmHg 47%
16:00 +2°C° 0 mm 9 mps 738 mmHg 47%
17:00 +1°C° 0 mm 8 mps 738 mmHg 50%
18:00 +2°C° 0 mm 7 mps 738 mmHg 53%
19:00 +1°C° 0 mm 6 mps 738 mmHg 55%
20:00 +1°C° 0 mm 6 mps 738 mmHg 58%
21:00 +1°C° 0 mm 6 mps 739 mmHg 60%
22:00 -1°C° 0 mm 6 mps 739 mmHg 63%
23:00 0°C° 0 mm 5 mps 739 mmHg 63%

Day after tomorrow, 23 April, Friday

Time Temperature Precipitation Wind Pressure Humidity
00:00 0°C° 0 mm 5 mps 739 mmHg 63%
01:00 0°C° 0 mm 5 mps 739 mmHg 63%
02:00 0°C° 0 mm 5 mps 739 mmHg 66%
03:00 0°C° 0 mm 5 mps 739 mmHg 69%
04:00 0°C° 0 mm 5 mps 739 mmHg 72%
05:00 0°C° 0 mm 5 mps 740 mmHg 73%
06:00 +1°C° 0 mm 4 mps 740 mmHg 73%
07:00 +1°C° 0 mm 4 mps 740 mmHg 74%
08:00 +4°C° 0 mm 4 mps 740 mmHg 67%
09:00 +7°C° 0 mm 4 mps 740 mmHg 60%
10:00 +9°C° 0 mm 5 mps 740 mmHg 53%
11:00 +10°C° 0 mm 5 mps 740 mmHg 51%
12:00 +11°C° 0 mm 6 mps 740 mmHg 49%
13:00 +12°C° 0 mm 7 mps 740 mmHg 48%
14:00 +12°C° 0 mm 7 mps 740 mmHg 48%
15:00 +12°C° 0 mm 7 mps 740 mmHg 49%
16:00 +13°C° 0 mm 6 mps 740 mmHg 49%
17:00 +10°C° 0 mm 6 mps 740 mmHg 55%
18:00 +9°C° 0 mm 5 mps 740 mmHg 62%
19:00 +8°C° 0 mm 4 mps 740 mmHg 68%
20:00 +8°C° 0 mm 3 mps 740 mmHg 71%
21:00 +7°C° 0 mm 3 mps 741 mmHg 73%
22:00 +5°C° 0 mm 3 mps 741 mmHg 76%
23:00 +5°C° 0 mm 3 mps 741 mmHg 77%

24 April, Saturday

Time Temperature Precipitation Wind Pressure Humidity
00:00 +4°C° 0 mm 3 mps 741 mmHg 78%
01:00 +4°C° 0 mm 3 mps 741 mmHg 79%
02:00 +5°C° 0 mm 2 mps 741 mmHg 80%
03:00 +5°C° 0 mm 2 mps 741 mmHg 80%
04:00 +5°C° 0 mm 1 mps 741 mmHg 81%
05:00 +6°C° 0 mm 1 mps 741 mmHg 79%
06:00 +7°C° 0 mm 1 mps 741 mmHg 78%
07:00 +7°C° 0 mm 1 mps 741 mmHg 76%
08:00 +8°C° 0 mm 2 mps 740 mmHg 71%
09:00 +9°C° 0 mm 2 mps 740 mmHg 66%
10:00 +11°C° 0 mm 3 mps 740 mmHg 61%
11:00 +11°C° 0 mm 3 mps 739 mmHg 61%
12:00 +11°C° 0 mm 4 mps 739 mmHg 61%
13:00 +10°C° 0 mm 5 mps 738 mmHg 61%
14:00 +9°C° 0.1 mm 5 mps 738 mmHg 66%
15:00 +8°C° 0.1 mm 4 mps 737 mmHg 71%
16:00 +8°C° 0.1 mm 4 mps 737 mmHg 76%
17:00 +7°C° 1 mm 4 mps 737 mmHg 83%
18:00 +6°C° 1 mm 4 mps 736 mmHg 89%
19:00 +6°C° 1 mm 4 mps 736 mmHg 95%
20:00 +7°C° 0.7 mm 3 mps 735 mmHg 95%
21:00 +5°C° 0.7 mm 3 mps 735 mmHg 96%
22:00 +5°C° 0.7 mm 3 mps 734 mmHg 97%
23:00 +5°C° 1 mm 3 mps 734 mmHg 97%

25 April, Sunday

Time Temperature Precipitation Wind Pressure Humidity
00:00 +6°C° 1 mm 2 mps 733 mmHg 97%
01:00 +7°C° 1 mm 2 mps 733 mmHg 97%
02:00 +5°C° 0.3 mm 3 mps 733 mmHg 97%
03:00 +5°C° 0.3 mm 4 mps 733 mmHg 97%
04:00 +5°C° 0.3 mm 4 mps 733 mmHg 96%
05:00 +5°C° 0 mm 5 mps 733 mmHg 94%
06:00 +4°C° 0 mm 6 mps 734 mmHg 92%
07:00 +3°C° 0 mm 6 mps 734 mmHg 90%
08:00 +4°C° 0 mm 7 mps 735 mmHg 88%
09:00 +4°C° 0 mm 8 mps 735 mmHg 85%
10:00 +3°C° 0 mm 9 mps 736 mmHg 83%
11:00 +3°C° 0 mm 9 mps 737 mmHg 81%
12:00 +4°C° 0 mm 8 mps 737 mmHg 79%
13:00 +4°C° 0 mm 8 mps 737 mmHg 77%
14:00 +4°C° 0 mm 8 mps 738 mmHg 72%
15:00 +5°C° 0 mm 8 mps 739 mmHg 67%
16:00 +5°C° 0 mm 9 mps 739 mmHg 62%
17:00 +4°C° 0 mm 8 mps 740 mmHg 63%
18:00 +3°C° 0 mm 7 mps 740 mmHg 64%
19:00 +3°C° 0 mm 6 mps 741 mmHg 65%
20:00 +2°C° 0 mm 5 mps 742 mmHg 69%
21:00 +3°C° 0 mm 4 mps 742 mmHg 73%
22:00 +2°C° 0 mm 3 mps 743 mmHg 77%
23:00 +2°C° 0 mm 3 mps 744 mmHg 75%

26 April, Monday

Time Temperature Precipitation Wind Pressure Humidity
00:00 +2°C° 0 mm 3 mps 744 mmHg 73%
01:00 +2°C° 0 mm 3 mps 745 mmHg 70%
02:00 +1°C° 0 mm 3 mps 745 mmHg 71%
03:00 0°C° 0 mm 3 mps 746 mmHg 72%
04:00 +1°C° 0 mm 2 mps 746 mmHg 73%
05:00 0°C° 0 mm 3 mps 747 mmHg 70%
06:00 +1°C° 0 mm 3 mps 747 mmHg 67%
07:00 +2°C° 0 mm 3 mps 748 mmHg 65%
08:00 +3°C° 0 mm 3 mps 748 mmHg 59%
09:00 +5°C° 0 mm 3 mps 748 mmHg 53%
10:00 +8°C° 0 mm 3 mps 748 mmHg 47%
11:00 +8°C° 0 mm 3 mps 748 mmHg 45%
12:00 +9°C° 0 mm 3 mps 748 mmHg 43%
13:00 +10°C° 0 mm 2 mps 748 mmHg 41%
14:00 +10°C° 0 mm 2 mps 747 mmHg 41%
15:00 +12°C° 0 mm 2 mps 747 mmHg 41%
16:00 +12°C° 0 mm 2 mps 747 mmHg 42%
17:00 +9°C° 0 mm 2 mps 747 mmHg 49%
18:00 +8°C° 0 mm 2 mps 747 mmHg 56%
19:00 +7°C° 0 mm 2 mps 747 mmHg 63%
20:00 +6°C° 0 mm 2 mps 747 mmHg 63%
21:00 +6°C° 0 mm 1 mps 747 mmHg 63%
22:00 +6°C° 0 mm 1 mps 747 mmHg 63%
23:00 +5°C° 0 mm 1 mps 747 mmHg 64%
Show more